Location: Krasnoyarskiy Pitomnik
(51.1333°N, 71.6167°E)
Time: 20:04:05
(UTC+00:00)

Envisat - Pass Details

Date: 01 March 2024
Orbit: 762 x 764 km, 98.3° (Epoch: 13 April)

Event Time Altitude Azimuth Distance (km) Brightness Sun altitude
Rises 23:41:11 0° 9° (N) 3,244 6.6 -21.7°
Reaches altitude 10° 23:43:36 10° 2° (N) 2,313 5.7 -21.4°
Maximum altitude 23:48:19 39° 295° (WNW) 1,132 3.5 -20.7°
Enters shadow 23:48:35 39° 287° (WNW) 1,138 3.4 -20.6°
